�N����,����,����,����,����,�C��,���x,�~����,���Ǝ���,�S�V����,�ő�u�ԕ���,,,
,,,,,,,,,,����,����,����,�N��
yyyy/mm/dd,hh:mm:ss,-16,16����,m/s,��,%,mm,min,KW/�u,-16,16����,m/s,Time
2011/3/1,1:00:00,293,1.3,-11,90.3,0,0,0.01,293,2.7,16,,
2011/3/1,2:00:00,248,1,-11.7,90.2,0,0,0.01,270,2.6,29,,
2011/3/1,3:00:00,293,1.8,-9.3,89.7,0,0,0.01,293,3.4,51,,
2011/3/1,4:00:00,225,1.5,-9.5,87.1,0,0,0.01,293,4.8,32,,
2011/3/1,5:00:00,293,1.4,-11,87.6,0,0,0.01,270,3.3,7,,
2011/3/1,6:00:00,293,3.7,-9,87.4,0,0,0.01,315,5.3,58,,
2011/3/1,7:00:00,293,3.5,-8,84,0,0,0.05,315,6.1,31,,
2011/3/1,8:00:00,293,2.8,-7.2,80.4,0,22,0.11,293,5.8,0,,
2011/3/1,9:00:00,315,2.2,-5.3,76.6,0,60,0.3,315,5.4,20,,
2011/3/1,10:00:00,270,0.7,-3.8,74.5,0,60,0.42,270,2.1,31,,
2011/3/1,11:00:00,135,0.9,-3,77.5,0,60,0.33,113,1.8,48,,
2011/3/1,12:00:00,135,1.2,-2.8,85.4,0,60,0.27,135,3.3,34,,
2011/3/1,13:00:00,45,1.3,-2.5,90,0,60,0.23,90,2.8,34,,
2011/3/1,14:00:00,158,3.6,-1.7,88.8,0.5,60,0.22,158,6.4,14,,
2011/3/1,15:00:00,158,0.9,-1.8,93.5,0.5,56,0.17,158,5.9,9,,
2011/3/1,16:00:00,90,1.4,-1.7,95,1,0,0.08,135,3.5,15,,
2011/3/1,17:00:00,360,1.5,-2.1,96.5,0.5,0,0.03,23,2.1,30,,
2011/3/1,18:00:00,338,0.8,-2.1,97,0.5,0,0.01,360,1.9,0,,
2011/3/1,19:00:00,293,3.3,-3.2,95.4,1,0,0.01,315,4.5,58,,
2011/3/1,20:00:00,293,3.3,-3.5,95.6,0,0,0.01,315,5.5,45,,
2011/3/1,21:00:00,293,3.5,-3.5,94,0.5,0,0.01,293,6.5,34,,
2011/3/1,22:00:00,293,4.7,-3.5,92.1,0,0,0.01,293,6.6,50,,
2011/3/1,23:00:00,293,4.7,-3.5,91.9,0,0,0.01,293,7.4,51,,
2011/3/1,24:00:00,315,2.4,-3.2,88.6,0,0,0.01,293,8.4,7,,
2011/3/2,1:00:00,293,4,-3.2,89.2,0,0,0.01,293,6.8,48,,
2011/3/2,2:00:00,293,4.4,-3.4,88.6,0,0,0.01,293,6.9,9,,
2011/3/2,3:00:00,315,4,-4.2,86.4,0,0,0.01,315,6.5,50,,
2011/3/2,4:00:00,293,2.6,-5.9,88.4,0,0,0.01,315,6.4,8,,
2011/3/2,5:00:00,270,0.9,-9.1,94.7,0,0,0.01,315,3.1,5,,
2011/3/2,6:00:00,248,0.6,-10,94.2,0,0,0.01,270,2.1,9,,
2011/3/2,7:00:00,248,1.6,-7.6,95.7,0,0,0.04,248,2.5,56,,
2011/3/2,8:00:00,203,0.9,-4.7,92.8,0,44,0.14,248,2.2,8,,
2011/3/2,9:00:00,315,2.4,-0.3,63.9,0,60,0.39,315,5.1,58,,
2011/3/2,10:00:00,315,3.6,0.9,52.9,0,60,0.63,315,6.1,51,,
2011/3/2,11:00:00,315,3.9,1.4,49.4,0,60,0.73,315,6.8,10,,
2011/3/2,12:00:00,315,4.4,2,41.6,0,60,0.78,315,7.6,56,,
2011/3/2,13:00:00,315,5.2,2,37.6,0,60,0.74,315,8.3,57,,
2011/3/2,14:00:00,315,4.4,2.3,39.3,0,60,0.7,315,8.6,45,,
2011/3/2,15:00:00,315,3.5,2.1,42.5,0,60,0.48,315,8,26,,
2011/3/2,16:00:00,315,3.8,2,41.6,0,53,0.18,338,6.9,58,,
2011/3/2,17:00:00,315,3.2,0.5,52.1,0,0,0.05,315,5.3,2,,
2011/3/2,18:00:00,293,3.2,-1,56.3,0,0,0.01,315,6.6,14,,
2011/3/2,19:00:00,338,5.1,-1.4,61.3,0,0,0,338,9.1,58,,
2011/3/2,20:00:00,338,6,-1.3,64.1,0,0,0,338,11.4,54,,
2011/3/2,21:00:00,338,4.5,-1.8,68.6,0,0,0.01,338,12.7,31,,
2011/3/2,22:00:00,23,3.3,-3.1,81.8,0,0,0.01,360,8.4,3,,
2011/3/2,23:00:00,45,2.8,-4.6,85.8,0,0,0.01,23,4.6,6,,
2011/3/2,24:00:00,338,1.8,-5.1,82.7,0,0,0.01,360,4.5,31,,
2011/3/3,1:00:00,225,1.2,-7.5,95,0,0,0.01,270,3,21,,
2011/3/3,2:00:00,248,2.9,-10.2,89.4,0,0,0.01,270,3.9,58,,
2011/3/3,3:00:00,270,2.8,-10.7,89,0,0,0.01,270,4.2,31,,
2011/3/3,4:00:00,315,2,-10.6,87.8,0,0,0.01,293,3.2,46,,
2011/3/3,5:00:00,270,0.5,-12.5,90.4,0,0,0.01,315,2.1,18,,
2011/3/3,6:00:00,270,2.2,-12.9,90.3,0,0,0.01,270,2.8,57,,
2011/3/3,7:00:00,270,1.7,-11,92.5,0,5,0.08,270,3.1,10,,
2011/3/3,8:00:00,270,1.6,-8.4,74,0,60,0.28,293,2.9,37,,
2011/3/3,9:00:00,315,3.2,-3.4,53.9,0,60,0.48,338,5.6,57,,
2011/3/3,10:00:00,293,4.2,-2.3,47,0,60,0.64,315,6.9,52,,
2011/3/3,11:00:00,315,3.9,-0.6,32,0,60,0.74,338,8.1,50,,
2011/3/3,12:00:00,315,5.4,-0.3,33.6,0,60,0.79,315,9.4,56,,
2011/3/3,13:00:00,315,5.4,-0.4,30.4,0,60,0.75,315,9.7,35,,
2011/3/3,14:00:00,315,5.7,-0.9,33.6,0,60,0.6,293,10.2,5,,
2011/3/3,15:00:00,315,4.7,-2,37.8,0,37,0.17,315,8.7,25,,
2011/3/3,16:00:00,315,5.7,-2.5,40.8,0,0,0.08,293,11,43,,
2011/3/3,17:00:00,315,4.6,-2.6,43.1,0,17,0.08,315,10,23,,
2011/3/3,18:00:00,315,4.2,-3.5,50.7,0,0,0.01,293,9.7,32,,
2011/3/3,19:00:00,293,4.8,-3.9,49.5,0,0,0.01,315,8.4,15,,
2011/3/3,20:00:00,315,4.1,-4.4,51.6,0,0,0.01,315,9.6,20,,
2011/3/3,21:00:00,293,2.9,-5.3,54.1,0,0,0.01,315,7.7,14,,
2011/3/3,22:00:00,270,3.7,-7.4,62.6,0,0,0.01,270,5,56,,
2011/3/3,23:00:00,293,1.7,-8.1,62.6,0,0,0.01,270,4.7,11,,
2011/3/3,24:00:00,270,1.9,-11,67.6,0,0,0.01,248,3.4,37,,
2011/3/4,1:00:00,270,2.3,-10.2,70.8,0,0,0.01,293,3,54,,
2011/3/4,2:00:00,270,2.3,-11.5,69,0,0,0.01,270,4,31,,
2011/3/4,3:00:00,270,2.1,-11.7,77.1,0,0,0.01,270,3.4,20,,
2011/3/4,4:00:00,270,2.4,-11.5,78.6,0,0,0.01,270,3.1,53,,
2011/3/4,5:00:00,248,2.3,-10,74.6,0,0,0.01,293,2.9,18,,
2011/3/4,6:00:00,248,2.3,-9.7,75.1,0,0,0.01,248,3.5,38,,
2011/3/4,7:00:00,293,1.7,-8.9,76.1,0,0,0.04,270,2.4,59,,
2011/3/4,8:00:00,270,2.2,-7.1,69.6,0,45,0.14,270,3.3,39,,
2011/3/4,9:00:00,270,1.2,-2.7,46.9,0,60,0.31,293,2.7,0,,
2011/3/4,10:00:00,113,1,-0.9,39.8,0,60,0.58,225,2.1,12,,
2011/3/4,11:00:00,270,2.4,0.6,44.8,0,60,0.67,315,4,50,,
2011/3/4,12:00:00,315,2.2,1,42.9,0,60,0.66,315,4.6,4,,
2011/3/4,13:00:00,293,4,1,38.2,0,60,0.73,293,7.5,55,,
2011/3/4,14:00:00,315,3.2,1.8,37.8,0,60,0.56,315,6,15,,
2011/3/4,15:00:00,315,4,1.6,37.8,0,60,0.55,270,8.4,2,,
2011/3/4,16:00:00,338,3.7,1.1,40.7,0,60,0.29,338,7.4,54,,
2011/3/4,17:00:00,315,2.6,-0.5,47,0,34,0.14,338,9.2,14,,
2011/3/4,18:00:00,315,1.9,-1.8,53.6,0,0,0.01,338,5.6,7,,
2011/3/4,19:00:00,315,2.7,-2.5,55.7,0,0,0,338,5.4,34,,
2011/3/4,20:00:00,315,2.5,-3.7,59.9,0,0,0,315,5.3,45,,
2011/3/4,21:00:00,293,2.3,-4.2,59.1,0,0,0.01,315,4.6,12,,
2011/3/4,22:00:00,248,2.1,-8.9,72.9,0,0,0.01,293,3.7,0,,
2011/3/4,23:00:00,225,0.7,-10.4,81.3,0,0,0.01,270,3.1,2,,
2011/3/4,24:00:00,270,2.4,-9.6,77.8,0,0,0.01,270,2.7,55,,
2011/3/5,1:00:00,270,2.4,-9.1,84,0,0,0.01,293,4.2,27,,
2011/3/5,2:00:00,270,3.2,-10.2,79.1,0,0,0.01,270,4.2,42,,
2011/3/5,3:00:00,293,1.9,-10.3,86.1,0,0,0.01,293,4,18,,
2011/3/5,4:00:00,293,2.3,-11.1,89.6,0,0,0.01,270,3.5,2,,
2011/3/5,5:00:00,270,1.8,-12.1,83.6,0,0,0.01,248,5.2,34,,
2011/3/5,6:00:00,270,3.2,-12.7,88.1,0,0,0.01,293,4.2,54,,
2011/3/5,7:00:00,270,2.8,-13,84.7,0,12,0.08,270,3.8,33,,
2011/3/5,8:00:00,293,2.1,-9.3,73.2,0,60,0.3,270,3.2,22,,
2011/3/5,9:00:00,270,1.2,-3.1,52.6,0,60,0.5,293,3,0,,
2011/3/5,10:00:00,158,2.5,-1.1,38.5,0,60,0.66,158,3.7,55,,
2011/3/5,11:00:00,158,2.7,-0.6,47.8,0,60,0.75,158,4.4,50,,
2011/3/5,12:00:00,113,2.4,-0.2,41.8,0,60,0.79,113,4.6,38,,
2011/3/5,13:00:00,158,2.6,0.2,48.4,0,60,0.76,158,4.6,19,,
2011/3/5,14:00:00,225,1.4,1.5,50.2,0,60,0.68,158,4.2,12,,
2011/3/5,15:00:00,360,0.8,2.7,49.1,0,60,0.54,225,3.2,7,,
2011/3/5,16:00:00,293,2.3,1.6,41.1,0,60,0.34,270,4.9,1,,
2011/3/5,17:00:00,248,1,-1.7,56.3,0,28,0.12,293,3.6,0,,
2011/3/5,18:00:00,203,0.7,-5.7,68.9,0,0,0.01,248,1.5,32,,
2011/3/5,19:00:00,248,0.6,-5.2,68.9,0,0,0,270,2,32,,
2011/3/5,20:00:00,270,1.3,-8,82.7,0,0,0,248,2.5,39,,
2011/3/5,21:00:00,270,1.7,-10.2,83.5,0,0,0.01,270,2,52,,
2011/3/5,22:00:00,270,1.5,-11.5,83.7,0,0,0.01,270,3,32,,
2011/3/5,23:00:00,270,0.4,-9.5,88.4,0,0,0.01,270,2.1,5,,
2011/3/5,24:00:00,270,1.1,-9.7,86.2,0,0,0.01,270,2.4,17,,
2011/3/6,1:00:00,270,2.6,-8.8,85.5,0,0,0.01,270,3.3,47,,
2011/3/6,2:00:00,293,2,-7.9,84.8,0,0,0.01,270,3.3,2,,
2011/3/6,3:00:00,293,2.1,-8,84.9,0,0,0.01,293,3.1,52,,
2011/3/6,4:00:00,293,1.4,-8.7,84.3,0,0,0.01,270,3.8,40,,
2011/3/6,5:00:00,270,2.2,-9.3,90.4,0,0,0.01,270,3.1,38,,
2011/3/6,6:00:00,293,2.6,-10.1,90.4,0,0,0.01,293,3.7,56,,
2011/3/6,7:00:00,270,2.6,-8.2,84.5,0,0,0.05,293,4.6,44,,
2011/3/6,8:00:00,293,1.7,-7.3,79.5,0,56,0.2,270,3.6,13,,
2011/3/6,9:00:00,45,2,-1.5,69.7,0,56,0.42,45,3.3,57,,
2011/3/6,10:00:00,90,2.1,2,74.9,0,60,0.63,90,4.1,19,,
2011/3/6,11:00:00,180,3.4,1.9,79.3,0,60,0.71,158,7.2,27,,
2011/3/6,12:00:00,158,3.2,3.3,71.5,0,60,0.73,158,5.8,47,,
2011/3/6,13:00:00,248,3,4.8,56.8,0,60,0.75,248,8.1,58,,
2011/3/6,14:00:00,270,2.4,5.6,50.6,0,60,0.75,270,6.9,0,,
2011/3/6,15:00:00,270,4.8,4.3,55,0,60,0.66,248,7.6,43,,
2011/3/6,16:00:00,248,3.6,4.8,53.1,0,60,0.36,270,6.2,3,,
2011/3/6,17:00:00,248,2.9,3.7,58.8,0,24,0.11,225,6.8,21,,
2011/3/6,18:00:00,293,1.3,0.7,71.3,0,0,0.01,270,4,0,,
2011/3/6,19:00:00,270,1.2,-2.3,81.7,0,0,0,293,1.7,58,,
2011/3/6,20:00:00,293,1.9,-2.6,80.4,0,0,0,293,3.4,39,,
2011/3/6,21:00:00,270,1.6,-3.9,83.8,0,0,0,293,3.2,25,,
2011/3/6,22:00:00,293,2.2,-5.3,87.1,0,0,0,270,3.7,13,,
2011/3/6,23:00:00,270,1.3,-4.9,92.7,0,0,0.01,270,3.3,3,,
2011/3/6,24:00:00,293,2,-7.7,92.7,0,0,0.01,293,3.2,50,,
2011/3/7,1:00:00,270,2.1,-4.8,91.9,0,0,0.01,270,3.2,30,,
2011/3/7,2:00:00,270,2.2,-7.4,82,0,0,0.01,270,3.4,7,,
2011/3/7,3:00:00,270,2,-8.5,85.9,0,0,0.01,293,3.1,42,,
2011/3/7,4:00:00,270,2.2,-9.2,92.1,0,0,0.01,270,2.8,57,,
2011/3/7,5:00:00,270,2.3,-8.1,89.4,0,0,0.01,293,2.8,7,,
2011/3/7,6:00:00,270,2.7,-9.7,90.6,0,0,0.01,270,3.6,52,,
2011/3/7,7:00:00,293,3,-8,85.3,0,17,0.09,270,3.8,4,,
2011/3/7,8:00:00,270,1.9,-5.3,78.8,0,60,0.28,270,2.6,40,,
2011/3/7,9:00:00,68,1,1.2,61.3,0,60,0.48,270,3,5,,
2011/3/7,10:00:00,135,2.1,1.4,52.1,0,60,0.66,135,3.6,40,,
2011/3/7,11:00:00,113,3.3,1.2,56.4,0,60,0.76,113,4.8,22,,
2011/3/7,12:00:00,68,3.7,2.3,63.4,0,60,0.8,113,5,3,,
2011/3/7,13:00:00,68,3.4,2.2,65.3,0,60,0.76,90,5.2,44,,
2011/3/7,14:00:00,68,4.4,1.6,66.7,0,60,0.62,68,6.3,47,,
2011/3/7,15:00:00,68,3.4,0.9,70.3,0,60,0.41,90,6.2,15,,
2011/3/7,16:00:00,68,2.6,0.8,75.8,0,60,0.3,45,4.7,22,,
2011/3/7,17:00:00,23,1.7,0.3,78,0,45,0.17,45,3.2,1,,
2011/3/7,18:00:00,338,0.6,-3.7,87.2,0,0,0.02,23,2.6,3,,
2011/3/7,19:00:00,293,1.5,-4.1,78.4,0,0,0,293,2.1,50,,
2011/3/7,20:00:00,293,2.8,-3.1,73.3,0,0,0,293,4.1,56,,
2011/3/7,21:00:00,293,2.6,-6.1,82.1,0,0,0.01,315,4.8,15,,
2011/3/7,22:00:00,293,4.4,-2.5,68.8,0,0,0.01,293,6.6,40,,
2011/3/7,23:00:00,293,2.7,-3.1,69.7,0,0,0.01,270,6.2,24,,
2011/3/7,24:00:00,338,1.3,-3.7,71.2,0,0,0.01,315,4.9,12,,
2011/3/8,1:00:00,293,2,-5,73.6,0,0,0.01,360,3.2,2,,
2011/3/8,2:00:00,270,1.9,-8.3,80.5,0,0,0.01,293,3.8,40,,
2011/3/8,3:00:00,293,1.5,-5.9,75.3,0,0,0.01,293,4.3,19,,
2011/3/8,4:00:00,248,1.7,-10.9,86.2,0,0,0.01,270,2.4,0,,
2011/3/8,5:00:00,270,3.1,-9.3,82.2,0,0,0.01,293,4,42,,
2011/3/8,6:00:00,293,3.8,-7.9,78.6,0,0,0.01,293,4.6,40,,
2011/3/8,7:00:00,293,3.6,-7.3,72.9,0,22,0.1,293,4.8,54,,
2011/3/8,8:00:00,293,2.9,-3.5,54.9,0,53,0.27,270,5.4,50,,
2011/3/8,9:00:00,293,3.4,-1.6,49.9,0,60,0.51,293,5.2,55,,
2011/3/8,10:00:00,293,2.5,-0.8,38,0,60,0.67,293,5.6,3,,
2011/3/8,11:00:00,293,1.1,0.2,36.7,0,60,0.77,315,3.6,8,,
2011/3/8,12:00:00,270,1.4,1.9,31.7,0,60,0.81,293,5.2,42,,
2011/3/8,13:00:00,293,3.9,0.5,31.6,0,60,0.51,293,6.4,52,,
2011/3/8,14:00:00,270,4.9,0.6,42.6,0,60,0.7,293,8.6,47,,
2011/3/8,15:00:00,270,5,0.1,44.1,0,57,0.53,270,9.5,14,,
2011/3/8,16:00:00,315,2.8,0.1,46.3,0,49,0.25,270,7.5,8,,
2011/3/8,17:00:00,23,1,-2.2,50.7,0,31,0.13,293,4.6,7,,
2011/3/8,18:00:00,158,0.8,-5.2,64.7,0,0,0.01,135,1.5,34,,
2011/3/8,19:00:00,158,1.8,-2.3,62.7,0,0,0,180,2.6,51,,
2011/3/8,20:00:00,203,3.7,-2.8,58.9,0,0,0,180,6.1,50,,
2011/3/8,21:00:00,203,3,-2.8,63.2,0,0,0.01,203,6.5,2,,
2011/3/8,22:00:00,203,2.5,-2.2,62.3,0,0,0.01,180,5.7,3,,
2011/3/8,23:00:00,248,2.9,-2.8,69.1,0,0,0.01,225,6.6,33,,
2011/3/8,24:00:00,225,2.9,-3.5,84.9,0,0,0.01,203,4.5,36,,
2011/3/9,1:00:00,225,2.1,-4.6,86.7,0,0,0.01,225,4.3,9,,
2011/3/9,2:00:00,293,1.9,-8,87.4,0,0,0.01,203,3.9,5,,
2011/3/9,3:00:00,293,2.4,-8.8,84.1,0,0,0.01,293,3.9,26,,
2011/3/9,4:00:00,293,1.1,-9.8,81,0,0,0.01,293,4,4,,
2011/3/9,5:00:00,248,2,-11.5,83.6,0,0,0.01,270,3.4,21,,
2011/3/9,6:00:00,293,2.7,-11.3,86.5,0,0,0.01,270,5.9,31,,
2011/3/9,7:00:00,270,4.3,-7.1,68.1,0,24,0.11,270,6.5,59,,
2011/3/9,8:00:00,248,4.5,-2,49.8,0,60,0.31,248,8.7,43,,
2011/3/9,9:00:00,270,4.4,-1.8,51.2,0,60,0.48,248,11.3,26,,
2011/3/9,10:00:00,270,4.5,-1.1,43.9,0,60,0.67,270,9.1,41,,
2011/3/9,11:00:00,315,3.9,-0.4,41.6,0,60,0.82,270,9.9,0,,
2011/3/9,12:00:00,225,6.3,-0.6,47.4,0,60,0.85,225,9.3,50,,
2011/3/9,13:00:00,315,1.7,0.1,49.4,0,60,0.57,225,7.5,9,,
2011/3/9,14:00:00,225,7,-0.5,50.8,0,60,0.86,225,10.6,54,,
2011/3/9,15:00:00,248,6,-0.7,53.3,0,60,0.68,225,10.5,2,,
2011/3/9,16:00:00,248,5.3,-2.1,64.4,0,33,0.29,225,9.7,30,,
2011/3/9,17:00:00,248,4.2,-2.6,62.5,0,44,0.19,248,9.5,7,,
2011/3/9,18:00:00,225,3.7,-4.1,68,0,0,0.01,248,8.5,4,,
2011/3/9,19:00:00,225,3.1,-5.6,70.5,0,0,0,248,5.1,3,,
2011/3/9,20:00:00,270,4.6,-5.4,62,0,0,0.01,270,6.4,30,,
2011/3/9,21:00:00,270,2.5,-7.4,63.4,0,0,0.01,248,5.7,2,,
2011/3/9,22:00:00,180,0.4,-8.5,72.4,0,0,0.01,270,2.4,0,,
2011/3/9,23:00:00,293,1.2,-11.5,73.8,0,0,0.01,270,2.3,39,,
2011/3/9,24:00:00,270,1.2,-12.9,79.3,0,0,0.01,248,1.8,59,,
2011/3/10,1:00:00,270,2,-12.1,85.3,0,0,0.01,270,2.6,58,,
2011/3/10,2:00:00,293,2.1,-13.4,83.8,0,0,0.01,270,3.2,22,,
2011/3/10,3:00:00,270,2.4,-13.8,82.3,0,0,0.01,270,3.5,45,,
2011/3/10,4:00:00,270,1.6,-14.4,83.6,0,0,0.01,270,3.8,10,,
2011/3/10,5:00:00,293,1.9,-13.6,81.5,0,0,0.01,293,3.4,45,,
2011/3/10,6:00:00,270,2.2,-14.5,83.4,0,0,0.01,270,3.8,30,,
2011/3/10,7:00:00,270,2.1,-13.6,80.5,0,8,0.07,270,4,24,,
2011/3/10,8:00:00,248,1.1,-8.8,73,0,60,0.34,270,3.1,20,,
2011/3/10,9:00:00,23,1.8,-3.8,61.7,0,60,0.43,23,2.4,59,,
2011/3/10,10:00:00,68,1,0.4,47.6,0,60,0.59,23,2.7,6,,
2011/3/10,11:00:00,135,2.8,-1,42.4,0,60,0.6,135,4,51,,
2011/3/10,12:00:00,135,1.4,0.3,39.6,0,60,0.6,180,3.5,38,,
2011/3/10,13:00:00,315,2.5,1.6,37.5,0,60,0.65,293,6.6,33,,
2011/3/10,14:00:00,293,2.4,1.1,48.1,0,60,0.53,293,6.6,13,,
2011/3/10,15:00:00,225,3.1,0.6,55.1,0,58,0.26,225,8.7,31,,
2011/3/10,16:00:00,225,1.6,0.8,50.6,0,58,0.25,203,5.3,6,,
2011/3/10,17:00:00,293,2.5,-0.6,46.9,0,40,0.16,248,4.6,17,,
2011/3/10,18:00:00,315,1.7,-2.4,53.6,0,0,0.01,315,3.1,0,,
2011/3/10,19:00:00,270,0.6,-5.5,65,0,0,0,248,2.4,16,,
2011/3/10,20:00:00,248,0.7,-7.9,77.1,0,0,0,225,1.6,47,,
2011/3/10,21:00:00,293,1.3,-10.5,80.8,0,0,0.01,270,2.7,39,,
2011/3/10,22:00:00,293,1.9,-9.6,78.5,0,0,0.01,293,3,44,,
2011/3/10,23:00:00,270,2.6,-10.5,81,0,0,0.01,270,4,5,,
2011/3/10,24:00:00,270,2,-11.2,84.9,0,0,0.01,270,3.2,47,,
2011/3/11,1:00:00,270,2.5,-11.9,86.2,0,0,0.01,270,3.6,37,,
2011/3/11,2:00:00,248,1.7,-12,86.8,0,0,0.01,270,3.5,3,,
2011/3/11,3:00:00,270,1,-12,86.6,0,0,0.01,248,3.9,29,,
2011/3/11,4:00:00,270,2.5,-11.5,87.1,0,0,0.01,270,3.2,42,,
2011/3/11,5:00:00,270,1.2,-10.1,83.9,0,0,0.01,225,3.4,13,,
2011/3/11,6:00:00,225,1.7,-9.3,87.7,0,0,0.01,270,3.6,37,,
2011/3/11,7:00:00,225,3.4,-4.9,68.4,0,4,0.08,203,4.6,53,,
2011/3/11,8:00:00,225,3.7,-2.3,60.1,0,60,0.25,225,6.3,33,,
2011/3/11,9:00:00,203,1.9,-0.5,52.8,0,60,0.45,203,5.4,43,,
2011/3/11,10:00:00,225,5.4,0.6,54.9,0,60,0.69,203,7.8,59,,
2011/3/11,11:00:00,203,4.5,1.3,52.3,0,60,0.76,180,8.7,38,,
2011/3/11,12:00:00,203,4.2,1.3,53,0,60,0.81,203,8.4,31,,
2011/3/11,13:00:00,225,5.1,1.9,50.7,0,60,0.79,248,8.3,30,,
2011/3/11,14:00:00,225,5.3,2,53,0,60,0.65,225,8.3,23,,
2011/3/11,15:00:00,248,5.4,1.6,53.5,0,60,0.54,225,10.1,23,,
2011/3/11,16:00:00,270,7.2,0.2,67.4,0,60,0.36,270,13.5,40,,
2011/3/11,17:00:00,315,2.5,-1.4,74.9,0,30,0.13,293,8.7,3,,
2011/3/11,18:00:00,270,0.9,-4.4,84.2,0,0,0.01,315,3.4,2,,
2011/3/11,19:00:00,248,1.6,-5.9,88.8,0,0,0,248,2.1,49,,
2011/3/11,20:00:00,270,1.6,-5.9,88.5,0,0,0,225,3,14,,
2011/3/11,21:00:00,293,2.1,-7.2,88.4,0,0,0.01,315,3.6,30,,
2011/3/11,22:00:00,270,1.3,-7.3,91.4,0,0,0.01,293,3.2,0,,
2011/3/11,23:00:00,293,2.8,-7.7,86.8,0,0,0.01,315,4.3,15,,
2011/3/11,24:00:00,293,2.8,-8.5,86.6,0,0,0.01,270,3.9,21,,
2011/3/12,1:00:00,270,3.5,-8.6,84.3,0,0,0.01,270,4.1,55,,
2011/3/12,2:00:00,293,2.9,-8.9,82.2,0,0,0.01,293,5.3,33,,
2011/3/12,3:00:00,270,3,-10.4,85.8,0,0,0.01,293,4.4,21,,
2011/3/12,4:00:00,270,2.5,-11.9,84.6,0,0,0.01,248,4.1,45,,
2011/3/12,5:00:00,270,2.5,-12.1,86.9,0,0,0.01,270,4.4,20,,
2011/3/12,6:00:00,293,2.6,-13,87.1,0,0,0.01,270,4.3,11,,
2011/3/12,7:00:00,293,2,-11.3,82.2,0,29,0.12,270,2.8,56,,
2011/3/12,8:00:00,315,0.9,-6.9,75.1,0,60,0.33,293,2.5,57,,
2011/3/12,9:00:00,113,0.2,-2.1,57.4,0,59,0.52,293,1.3,9,,
2011/3/12,10:00:00,135,0.7,1.5,37.8,0,60,0.64,270,2,59,,
2011/3/12,11:00:00,315,4.1,1.1,46.4,0,60,0.57,315,7,57,,
2011/3/12,12:00:00,293,4,1.7,40.8,0,60,0.81,293,6.7,55,,
2011/3/12,13:00:00,315,3.1,2.1,37.9,0,60,0.8,270,7.1,11,,
2011/3/12,14:00:00,315,2.8,2.6,40.8,0,60,0.71,360,5.6,10,,
2011/3/12,15:00:00,315,3.5,2.6,35.5,0,60,0.57,338,6,50,,
2011/3/12,16:00:00,203,1.7,1.4,53.8,0,60,0.37,338,4.7,4,,
2011/3/12,17:00:00,180,2,1,52,0,39,0.15,158,4.1,35,,
2011/3/12,18:00:00,203,1.5,-1.4,70.9,0,0,0.01,158,2.8,24,,
2011/3/12,19:00:00,225,1,-3.1,73.2,0,0,0,158,3,24,,
2011/3/12,20:00:00,203,2.7,-1,58.5,0,0,0,203,4.8,46,,
2011/3/12,21:00:00,203,3.5,-1.3,63.5,0,0,0,203,5.4,51,,
2011/3/12,22:00:00,158,2.4,-2.1,66,0,0,0.01,203,4.9,10,,
2011/3/12,23:00:00,180,3.1,0.8,63.8,0,0,0.01,180,5.8,34,,
2011/3/12,24:00:00,203,3.4,1.1,65.2,0,0,0.01,203,6.1,35,,
2011/3/13,1:00:00,180,4.8,1.1,74,0,0,0.01,180,8.6,52,,
2011/3/13,2:00:00,180,5.1,1.4,70.3,0,0,0.01,180,9.8,5,,
2011/3/13,3:00:00,180,3.6,2.1,68.7,0,0,0.01,180,9,2,,
2011/3/13,4:00:00,180,4.8,1,81.4,0,0,0.01,203,8.9,28,,
2011/3/13,5:00:00,203,3.2,1.2,79.9,0,0,0.01,180,9.5,6,,
2011/3/13,6:00:00,23,0.8,0.2,87.6,0,0,0.01,225,8.5,28,,
2011/3/13,7:00:00,338,1.3,0.9,87.2,0,26,0.09,225,4.2,41,,
2011/3/13,8:00:00,90,1.3,2.4,82.4,0,60,0.29,45,4,22,,
2011/3/13,9:00:00,315,1.3,4.3,74.6,0,60,0.49,293,2.1,54,,
2011/3/13,10:00:00,360,2.7,6.1,63.3,0,60,0.64,338,5,52,,
2011/3/13,11:00:00,68,2.8,5.2,71.8,0,60,0.74,45,5.6,16,,
2011/3/13,12:00:00,293,2.1,7,46.6,0,60,0.78,270,6.4,41,,
2011/3/13,13:00:00,338,3.1,7.6,40.3,0,60,0.72,293,7.1,5,,
2011/3/13,14:00:00,158,4.6,4.9,59.3,0,60,0.67,158,6.7,56,,
2011/3/13,15:00:00,180,3.3,5.5,58.8,0,60,0.54,180,5.6,33,,
2011/3/13,16:00:00,180,3.3,4.8,61.1,0,60,0.35,180,5.5,38,,
2011/3/13,17:00:00,180,1.3,4.3,63.7,0,35,0.14,180,4.1,27,,
2011/3/13,18:00:00,338,0.4,0.5,80.4,0,0,0.01,180,1.5,8,,
2011/3/13,19:00:00,270,0.8,-1.3,87.2,0,0,0,270,1.7,41,,
2011/3/13,20:00:00,338,1,-2.1,90.8,0,0,0,360,2.1,59,,
2011/3/13,21:00:00,23,2.6,-1.1,88,0,0,0,23,4,45,,
2011/3/13,22:00:00,23,2.1,-1.3,91.2,0,0,0,23,3.9,28,,
2011/3/13,23:00:00,23,2.4,-1.7,93.5,0,0,0.01,360,4,11,,
2011/3/13,24:00:00,315,1.9,-1.3,94.2,0,0,0.01,315,4.1,44,,
2011/3/14,1:00:00,293,1.8,-2.1,94.6,0,0,0.01,293,3.3,38,,
2011/3/14,2:00:00,293,1.2,-0.9,94,0,0,0.01,293,3.1,13,,
2011/3/14,3:00:00,293,2.1,-1.1,94.1,0,0,0.01,315,3,54,,
2011/3/14,4:00:00,360,1.3,-3.5,92.5,0,0,0.01,315,3.1,1,,
2011/3/14,5:00:00,293,1.1,-4.1,96,0,0,0.01,270,2.3,43,,
2011/3/14,6:00:00,293,2.5,-2.6,96.6,0,0,0.01,293,4.4,51,,
2011/3/14,7:00:00,270,0.6,-3.1,95.6,0,0,0.06,270,3.5,18,,
2011/3/14,8:00:00,203,1.2,2.4,87.1,0,24,0.11,203,4,59,,
2011/3/14,9:00:00,248,8.1,6.8,72.3,0,55,0.26,248,15.5,59,,
2011/3/14,10:00:00,248,9.2,6.7,74.1,0,60,0.57,225,18.4,21,,
2011/3/14,11:00:00,248,6.3,6.7,73.7,0,60,0.64,248,15.4,5,,
2011/3/14,12:00:00,248,6.1,7.3,63.9,0,60,0.62,248,11.6,45,,
2011/3/14,13:00:00,270,8.2,5.7,64.2,0,60,0.51,270,16.9,28,,
2011/3/14,14:00:00,248,7.1,6.9,55.4,0,60,0.45,225,12.9,58,,
2011/3/14,15:00:00,248,8.1,6.3,50.2,0,60,0.31,248,16.2,3,,
2011/3/14,16:00:00,315,2.2,4.7,64.7,0,60,0.22,270,13.6,10,,
2011/3/14,17:00:00,270,4.8,4.9,46.8,0,22,0.12,270,9.8,27,,
2011/3/14,18:00:00,315,5.1,3.3,47.9,0,0,0.01,293,9.4,44,,
2011/3/14,19:00:00,315,5.6,1.5,57.6,0,0,0,338,12,43,,
2011/3/14,20:00:00,315,5.1,1.7,48.5,0,0,0,315,11.9,30,,
2011/3/14,21:00:00,338,4.3,1.2,52,0,0,0,315,10.9,24,,
2011/3/14,22:00:00,338,3.3,1.1,49.8,0,0,0,360,7.9,46,,
2011/3/14,23:00:00,293,2.5,0.6,54.3,0,0,0.01,293,8.4,24,,
2011/3/14,24:00:00,293,2.2,-1,64.8,0,0,0.01,248,4.7,34,,
2011/3/15,1:00:00,225,3,-1.7,68.4,0,0,0.01,225,3.7,46,,
2011/3/15,2:00:00,293,2.5,-1.3,71.9,0,0,0.01,248,4.2,44,,
2011/3/15,3:00:00,360,1.9,-1.9,71.7,0,0,0.01,360,3.2,14,,
2011/3/15,4:00:00,68,3.9,-2.3,81.3,0,0,0.01,68,5.4,53,,
2011/3/15,5:00:00,68,2.7,-2.9,78.2,0,0,0.01,68,5.4,29,,
2011/3/15,6:00:00,270,0.9,-6.4,89.6,0,0,0.01,45,2.5,0,,
2011/3/15,7:00:00,270,0.7,-4.2,87.5,0,8,0.08,270,2.2,12,,
2011/3/15,8:00:00,113,1.1,-0.8,76.3,0,60,0.27,135,2,59,,
2011/3/15,9:00:00,113,2.9,-0.5,71,0,60,0.4,135,4.6,39,,
2011/3/15,10:00:00,135,3.6,-0.7,67.4,0,60,0.48,135,5.9,51,,
2011/3/15,11:00:00,113,3.8,0.2,66.8,0,60,0.78,113,6,38,,
2011/3/15,12:00:00,135,3.2,-0.5,68.6,0,60,0.62,135,5.8,52,,
2011/3/15,13:00:00,135,3.4,-0.3,69.5,0,60,0.52,113,5.9,17,,
2011/3/15,14:00:00,135,3.1,-0.2,70.6,0,60,0.36,113,6,22,,
2011/3/15,15:00:00,135,3.1,-0.2,73.3,0,60,0.23,135,6.8,20,,
2011/3/15,16:00:00,135,3.7,-0.4,78.7,0,44,0.14,135,6,51,,
2011/3/15,17:00:00,135,3.9,-0.6,83.4,0,0,0.06,158,7.6,13,,
2011/3/15,18:00:00,135,2.6,-0.6,86.7,0,0,0.01,158,6.3,28,,
2011/3/15,19:00:00,158,3.2,-0.7,88.8,0,0,0,158,5.9,20,,
2011/3/15,20:00:00,158,2.9,-0.7,88.5,0,0,0.01,158,6.7,20,,
2011/3/15,21:00:00,158,3.3,-0.6,86.6,0,0,0.01,158,5.8,10,,
2011/3/15,22:00:00,158,2,-0.7,85.1,0,0,0.01,158,5.5,16,,
2011/3/15,23:00:00,158,2.6,-0.5,86.6,0,0,0.01,158,4.5,44,,
2011/3/15,24:00:00,158,1.4,-0.7,86.8,0,0,0.01,158,4.6,12,,
2011/3/16,1:00:00,135,1.9,-0.8,86.5,0,0,0.01,135,3,42,,
2011/3/16,2:00:00,135,2,-1.3,93.1,0,0,0.01,113,3.5,15,,
2011/3/16,3:00:00,135,1.1,-1.4,93.9,0,0,0.01,135,3.2,9,,
2011/3/16,4:00:00,338,0.7,-1.8,96.2,0,0,0.01,338,1.3,37,,
2011/3/16,5:00:00,360,0.3,-1.9,97,0,0,0.01,338,1,34,,
2011/3/16,6:00:00,315,1,-2,97.2,0,0,0.01,315,1.6,45,,
2011/3/16,7:00:00,23,1.2,-1.7,97,0,0,0.03,23,1.4,54,,
2011/3/16,8:00:00,68,5.4,-1.9,96,1,8,0.07,90,8,46,,
2011/3/16,9:00:00,68,5.4,-1.3,84.8,0.5,60,0.22,68,8.5,35,,
2011/3/16,10:00:00,45,5.5,-1.5,79.6,0,60,0.38,23,7.8,52,,
2011/3/16,11:00:00,68,5,-0.9,77.6,0,60,0.54,45,8,8,,
2011/3/16,12:00:00,45,4.7,-0.4,74.2,0,60,0.73,68,7.6,46,,
2011/3/16,13:00:00,68,4.4,-0.2,76.2,0,60,0.59,68,7.1,46,,
2011/3/16,14:00:00,45,2.3,0.6,69.8,0,60,0.62,68,5.5,0,,
2011/3/16,15:00:00,135,1.8,0.1,67.3,0,60,0.56,135,3.9,42,,
2011/3/16,16:00:00,158,2.2,-0.5,72.4,0,60,0.35,158,4.1,41,,
2011/3/16,17:00:00,158,1.5,-1.8,81.3,0,25,0.11,158,3.8,7,,
2011/3/16,18:00:00,203,1.1,-3.2,87,0,0,0.01,180,2.4,1,,
2011/3/16,19:00:00,225,1.1,-3.1,90.4,0,0,0,225,1.6,57,,
2011/3/16,20:00:00,248,1.2,-4.1,89.4,0,0,0,225,2.3,46,,
2011/3/16,21:00:00,360,1.3,-3.4,93,0,0,0.01,293,2,1,,
2011/3/16,22:00:00,45,3.7,-2.9,94.3,0,0,0.01,360,6.6,30,,
2011/3/16,23:00:00,360,2.3,-3.2,90.7,0.5,0,0.01,23,5.8,12,,
2011/3/16,24:00:00,315,2.7,-3.3,83.9,0,0,0.01,315,5.1,31,,
2011/3/17,1:00:00,315,4.3,-4.1,81,0,0,0.01,315,7.3,27,,
2011/3/17,2:00:00,315,3.8,-5.1,70.4,0,0,0.01,315,6.7,18,,
2011/3/17,3:00:00,315,2,-6.3,72.6,0,0,0.01,315,5.8,0,,
2011/3/17,4:00:00,270,2.2,-7.2,79,0,0,0.01,293,3.2,25,,
2011/3/17,5:00:00,293,2.4,-7.2,68.7,0,0,0.01,270,4.4,27,,
2011/3/17,6:00:00,315,2.8,-6.4,54.6,0,0,0.01,315,5.8,40,,
2011/3/17,7:00:00,315,2.7,-5.2,50.5,0,37,0.15,293,5.9,14,,
2011/3/17,8:00:00,338,3.8,-3.1,49.1,0,60,0.38,315,7.7,28,,
2011/3/17,9:00:00,315,4.4,-2.5,47.6,0,60,0.54,338,8.6,59,,
2011/3/17,10:00:00,315,6.2,-1.6,35.1,0,60,0.73,338,11.3,59,,
2011/3/17,11:00:00,315,6.1,-0.8,34,0,60,0.83,338,14.1,45,,
2011/3/17,12:00:00,315,6.7,-0.5,33.6,0,60,0.87,315,14.4,2,,
2011/3/17,13:00:00,315,7.4,-0.2,29.8,0,60,0.84,338,12.7,33,,
2011/3/17,14:00:00,315,6.3,0.5,33.4,0,60,0.76,315,11.8,13,,
2011/3/17,15:00:00,293,6.9,0.5,30.3,0,60,0.62,338,12.4,46,,
2011/3/17,16:00:00,315,5.1,0.4,31.7,0,60,0.42,315,11.8,26,,
2011/3/17,17:00:00,315,3.9,-0.4,33,0,51,0.19,293,9.1,2,,
2011/3/17,18:00:00,338,4.5,-1.3,45.4,0,0,0.02,315,9.2,44,,
2011/3/17,19:00:00,360,3.9,-2.5,55.1,0,0,0,338,8,1,,
2011/3/17,20:00:00,360,3.7,-3.3,64.6,0,0,0,23,6.3,22,,
2011/3/17,21:00:00,315,2.2,-4.3,68.6,0,0,0.01,360,5,7,,
2011/3/17,22:00:00,248,1.2,-8.6,77.5,0,0,0.01,338,2.6,2,,
2011/3/17,23:00:00,225,1.6,-9.4,81.6,0,0,0.01,180,2.5,36,,
2011/3/17,24:00:00,270,1.4,-9.6,84.7,0,0,0.01,270,2.4,34,,
2011/3/18,1:00:00,315,1.5,-9.8,80.3,0,0,0.01,293,2.8,38,,
2011/3/18,2:00:00,315,2.1,-6.9,68.2,0,0,0.01,315,3.7,47,,